Volver al catálogo

FENGYUN 1C DEB

ActivoSSO
NORAD 30880·DEBRIS·🇨🇳 China

Lanzado May 10, 1999 desde Taiyuan Satellite Launch Center

Loading…

Próximos Pases (próximas 24 horas)

TLE

ActualizadoSource: Space-Track

Época: Sep 14, 2026, 03:32 UTC

1 30880U 99025AXS 26257.14780771  .00001662  00000-0  69944-3 0  9991
2 30880  98.7779 334.8478 0020745  29.2027 331.0309 14.27034103  6386

Sigue FENGYUN 1C DEB en tiempo real con AllMySat

Download on the App Store